Wind_Speed
17 17 16 16 17 17 17 17 17 17 17 17 17 18 18 18 19 19 19 19 19 19 20 19 19 19 19 19 19 19 20 21 22 23 23 24 24 24 23 23 23 23 23
18 17 17 18 18 18 18 18 19 19 19 19 19 20 20 20 21 21 21 20 20 21 21 20 20 20 20 20 21 21 21 21 22 22 23 23 24 24 24 24 24 24 24
19 18 18 19 19 19 19 19 19 20 21 20 20 21 22 22 22 21 21 21 21 21 22 21 21 21 21 21 22 22 21 21 21 21 21 22 23 24 25 25 25 25 26
19 19 20 20 20 20 20 21 21 21 22 22 22 22 22 22 22 22 22 22 22 22 21 22 22 22 22 22 21 22 21 21 21 22 22 23 24 25 25 26 26 26 27
20 20 20 21 21 21 21 21 21 22 22 22 23 22 22 22 22 23 22 22 22 22 21 21 22 22 23 22 23 24 24 24 23 23 23 24 25 26 27 27 27 28 28
20 20 20 21 22 22 21 22 22 22 22 22 23 23 23 22 22 22 22 21 21 21 20 21 21 22 23 23 24 25 25 25 25 25 25 26 27 27 28 28 29 29 29
20 20 20 21 22 22 22 22 22 22 22 23 23 24 23 22 22 21 21 20 21 20 20 22 23 23 24 24 25 25 26 27 26 27 27 27 28 29 29 29 30 30 30
21 21 21 21 21 21 22 22 22 22 23 23 24 24 23 22 22 21 21 20 20 21 21 23 25 25 25 25 25 26 26 27 27 28 28 29 29 30 30 30 31 31 31
21 21 21 21 21 21 21 20 21 22 23 23 24 24 23 23 23 22 22 21 20 21 22 23 24 25 25 26 26 26 27 27 28 28 29 29 30 30 31 31 31 32 31
21 21 21 21 20 20 20 20 21 22 23 23 23 23 23 23 23 23 23 22 21 22 22 23 24 24 25 26 26 27 27 28 28 29 30 30 31 31 32 32 31 31 31
21 20 19 19 19 19 20 20 21 22 23 23 22 22 22 23 22 22 22 21 22 23 23 24 24 24 25 27 28 28 28 28 29 30 31 31 31 31 31 31 31 31 31
20 19 18 18 18 19 20 20 21 22 22 23 22 22 22 22 22 22 22 22 23 24 24 24 25 25 25 27 27 27 27 28 29 29 30 30 30 30 30 30 30 31 31
19 18 17 18 19 20 21 21 22 22 22 22 22 22 23 23 23 23 23 23 23 23 24 24 25 24 25 25 26 26 26 27 27 28 28 28 28 28 29 29 30 30 30
18 18 18 18 20 21 21 21 21 21 21 21 21 22 23 23 23 23 23 24 24 24 24 24 24 24 24 24 24 25 25 26 27 27 27 27 27 27 28 29 29 29 30
18 18 19 19 20 21 20 20 21 21 21 22 22 23 23 23 23 23 24 25 25 24 24 23 24 24 24 25 24 25 25 25 25 26 27 27 27 28 28 28 28 29 29
18 19 19 20 20 20 20 21 22 22 22 22 22 23 23 23 24 24 25 25 25 25 24 24 24 24 24 24 23 24 24 24 25 26 27 27 28 28 28 28 29 29 29
19 20 21 21 21 20 21 21 22 22 23 23 23 23 23 24 24 25 25 25 25 25 25 24 24 24 24 23 23 24 25 25 25 25 26 27 28 28 29 29 29 29 29
21 22 21 21 21 21 21 22 22 22 23 24 24 24 24 24 25 26 26 25 25 25 25 24 24 24 23 23 23 24 25 25 25 25 25 26 26 27 27 27 27 28 27
23 23 22 22 22 22 22 23 23 24 24 25 25 24 25 25 26 26 26 26 25 25 25 25 24 24 23 23 23 24 24 23 23 23 23 24 25 25 26 26 26 27 27
23 23 23 23 23 23 23 23 23 23 24 24 24 25 26 26 26 26 26 25 24 24 24 25 24 24 24 24 24 23 23 22 22 22 22 23 24 24 24 25 25 25 25
24 24 24 24 23 22 22 22 23 23 24 25 26 26 26 26 26 26 25 25 24 23 23 23 24 23 24 24 24 23 22 22 22 22 23 23 23 23 23 23 23 24 24
24 24 23 23 22 22 22 23 23 24 25 26 26 26 27 26 26 26 25 24 24 23 23 23 23 23 23 23 23 23 23 22 22 22 23 23 23 22 22 22 23 23 24
24 23 23 23 23 23 23 24 25 25 25 26 27 27 27 26 26 26 26 25 24 23 23 23 23 23 23 22 22 23 23 22 21 21 22 23 23 24 23 23 22 23 23
24 24 24 24 24 24 25 25 26 25 26 26 27 27 27 27 26 26 25 24 23 23 22 22 22 22 22 22 22 21 21 21 21 21 21 21 22 22 22 22 22 22 22
24 24 24 25 25 25 25 25 26 26 26 27 27 26 26 27 26 25 24 23 23 22 21 21 21 21 21 21 21 20 20 20 21 21 21 21 21 21 22 21 21 21 21
25 25 25 25 25 26 26 26 26 27 27 28 27 27 27 27 26 25 25 24 24 22 20 20 20 20 21 21 20 20 21 21 21 21 21 21 21 21 21 21 20 19 19
Wind_Direction
295 296 295 299 298 297 295 294 294 296 297 297 298 299 295 291 288 287 285 281 278 276 274 273 271 269 265 265 266 268 267 265 264 261 260 258 256 257 258 260 261 261 263
293 294 294 294 297 298 296 293 291 293 295 295 296 297 294 290 288 286 282 279 278 275 274 272 271 269 267 268 269 268 269 267 267 264 262 260 258 257 258 259 262 264 264
291 294 295 295 295 295 293 293 293 292 292 295 293 294 294 290 287 287 283 280 280 277 274 272 269 268 267 267 267 267 268 268 266 266 266 263 261 259 259 261 263 265 265
291 292 292 292 291 291 292 291 292 292 294 295 296 297 296 293 289 286 284 282 282 281 275 271 269 267 268 267 266 266 267 266 265 265 266 265 264 260 261 262 264 265 265
292 292 291 289 289 289 290 291 292 293 294 295 297 297 297 295 291 287 283 282 281 279 275 271 269 268 266 266 266 266 266 266 265 265 264 265 264 264 263 262 264 266 265
294 294 292 290 288 289 290 291 294 294 294 294 295 297 298 296 291 288 285 283 280 278 275 271 271 270 268 267 268 268 266 265 264 264 264 264 264 264 264 263 264 265 265
293 294 295 294 293 293 293 292 292 292 293 293 294 297 298 296 294 291 289 286 281 279 277 275 274 271 270 270 270 269 267 265 265 265 265 265 264 264 264 264 264 263 263
293 295 297 296 295 294 294 291 291 293 293 294 295 297 296 294 293 292 291 288 285 281 280 277 275 272 271 271 271 271 270 267 267 266 265 266 266 265 265 264 264 263 263
292 294 296 297 297 296 295 292 292 293 294 296 296 295 295 295 296 297 293 289 286 284 284 282 280 277 274 272 273 273 270 269 269 269 267 267 267 267 266 265 263 263 263
294 294 295 297 298 298 297 296 295 294 294 295 296 296 292 294 295 294 294 291 289 288 286 284 282 280 278 275 274 273 270 269 269 269 267 267 269 268 265 264 264 264 262
294 294 295 297 297 298 297 297 296 294 293 294 296 297 295 294 295 296 295 295 294 290 289 287 284 281 279 278 276 274 272 271 271 270 268 267 269 267 265 264 264 263 263
295 293 291 294 296 297 298 297 297 297 296 295 295 295 298 297 298 297 297 298 297 294 291 290 288 283 280 278 277 275 275 273 272 271 269 268 268 266 265 265 265 264 264
293 292 291 293 294 297 299 298 298 297 297 295 295 296 297 296 298 301 301 300 298 295 294 292 288 285 282 278 276 275 276 275 273 272 270 268 266 266 266 266 265 264 264
291 288 289 292 294 295 298 298 297 298 299 299 300 300 298 297 300 301 302 302 301 298 296 293 290 288 284 280 277 276 276 275 273 272 269 267 265 266 267 266 265 264 263
291 288 287 290 292 294 296 296 298 299 300 301 303 304 303 303 304 303 304 304 301 298 295 292 289 288 284 281 278 277 276 276 274 272 270 269 268 268 268 266 267 266 264
292 290 290 292 292 293 293 294 295 297 300 302 303 306 306 305 305 305 304 303 300 298 297 294 293 292 287 283 281 279 278 276 275 274 272 271 270 268 267 268 268 269 267
294 293 293 294 293 293 293 295 296 297 300 302 305 307 309 308 305 304 303 302 300 299 297 295 292 292 289 284 281 280 279 278 277 275 274 273 271 270 269 268 267 267 265
294 295 293 294 294 294 295 297 299 300 302 302 305 308 309 309 308 306 304 303 301 299 297 296 294 291 289 286 285 282 281 280 279 278 274 272 270 270 270 268 267 267 266
296 295 292 294 294 294 296 298 299 300 302 304 306 307 308 308 308 308 306 304 302 300 298 297 295 290 289 288 286 284 283 282 281 280 277 275 273 273 272 269 268 268 267
296 297 293 293 293 295 296 297 298 300 302 304 305 305 306 308 308 308 307 306 303 300 298 297 295 293 291 290 289 287 286 284 281 279 279 277 275 275 274 271 269 268 268
295 297 295 294 296 297 296 296 299 301 303 304 304 305 306 306 308 309 308 306 304 303 302 299 298 296 293 290 289 286 285 284 281 281 279 277 276 275 273 271 270 269 268
294 295 296 297 298 297 297 298 301 302 303 304 305 306 307 308 308 309 309 307 306 304 303 301 299 298 295 290 287 285 284 283 280 280 280 278 275 274 274 272 271 270 269
294 296 296 296 296 296 297 298 300 301 302 304 306 307 308 308 308 309 309 308 306 303 302 302 300 299 297 293 289 287 284 283 282 280 281 278 274 273 273 272 272 272 271
293 294 295 294 294 295 296 297 299 300 302 305 306 306 307 307 307 308 309 309 307 304 302 302 301 299 297 296 293 289 285 282 282 283 282 282 278 275 272 272 273 273 272
293 294 295 296 296 296 297 299 300 301 303 305 306 306 306 307 307 306 307 308 307 304 302 302 301 299 299 298 296 291 288 286 284 282 281 281 279 277 277 276 273 272 271
292 293 293 294 295 295 296 298 298 300 302 305 305 305 306 307 307 305 305 306 306 304 302 301 299 298 297 296 295 292 289 286 284 282 282 281 280 279 278 278 275 273 272
Height
5860 5858 5856 5854 5852 5851 5849 5848 5846 5844 5842 5840 5838 5836 5834 5832 5830 5829 5828 5827 5826 5825 5824 5823 5823 5823 5824 5824 5824 5824 5824 5825 5825 5825 5826 5826 5827 5828 5829 5829 5830 5830 5831
5856 5855 5853 5851 5849 5847 5845 5843 5842 5840 5838 5836 5834 5832 5829 5827 5825 5823 5822 5821 5820 5819 5818 5818 5817 5817 5818 5818 5818 5818 5818 5818 5819 5819 5819 5819 5821 5822 5822 5823 5823 5824 5824
5851 5850 5848 5846 5844 5843 5841 5839 5837 5835 5833 5831 5829 5826 5823 5821 5819 5818 5816 5815 5814 5813 5812 5811 5811 5811 5811 5811 5811 5812 5812 5812 5812 5812 5812 5813 5814 5815 5816 5816 5817 5817 5817
5847 5845 5844 5842 5840 5838 5836 5835 5833 5831 5828 5826 5823 5821 5818 5816 5814 5812 5810 5809 5807 5806 5805 5805 5805 5805 5805 5805 5805 5805 5806 5806 5806 5806 5806 5807 5807 5808 5809 5810 5810 5810 5810
5842 5841 5839 5837 5835 5834 5832 5830 5828 5826 5823 5821 5818 5816 5814 5811 5809 5806 5805 5803 5801 5800 5799 5799 5799 5799 5799 5799 5799 5799 5799 5799 5799 5799 5800 5800 5800 5800 5801 5802 5803 5803 5803
5838 5836 5834 5832 5831 5829 5827 5825 5823 5821 5818 5816 5814 5811 5808 5806 5803 5801 5798 5797 5795 5794 5793 5792 5792 5792 5792 5792 5792 5792 5792 5792 5792 5792 5792 5793 5793 5793 5794 5794 5795 5795 5795
5833 5831 5829 5827 5825 5823 5821 5819 5818 5816 5813 5811 5808 5806 5803 5800 5798 5795 5793 5791 5789 5788 5787 5786 5786 5785 5785 5785 5785 5784 5784 5784 5784 5784 5785 5785 5785 5785 5786 5786 5786 5787 5787
5828 5826 5824 5822 5820 5818 5816 5814 5812 5810 5808 5806 5803 5800 5797 5795 5792 5790 5788 5785 5784 5782 5781 5780 5779 5778 5778 5777 5777 5776 5776 5776 5776 5776 5777 5777 5777 5777 5777 5778 5778 5778 5779
5822 5820 5818 5816 5814 5812 5810 5808 5807 5805 5802 5800 5798 5795 5792 5790 5787 5785 5782 5780 5778 5776 5775 5773 5772 5771 5770 5770 5769 5769 5768 5768 5768 5768 5768 5768 5768 5769 5769 5769 5769 5770 5771
5817 5815 5813 5811 5809 5807 5805 5803 5801 5799 5797 5795 5792 5789 5787 5784 5782 5779 5776 5774 5772 5770 5769 5767 5765 5764 5763 5762 5761 5761 5760 5760 5760 5760 5760 5760 5760 5760 5760 5760 5760 5761 5762
5812 5810 5809 5806 5805 5802 5800 5799 5797 5794 5792 5789 5786 5784 5782 5779 5776 5773 5771 5768 5766 5764 5762 5760 5758 5757 5756 5755 5754 5753 5752 5752 5751 5751 5751 5751 5751 5751 5751 5752 5752 5752 5753
5807 5805 5804 5802 5800 5798 5796 5794 5791 5789 5786 5784 5781 5779 5776 5773 5770 5768 5765 5763 5760 5758 5755 5753 5751 5749 5748 5747 5746 5745 5744 5743 5743 5742 5742 5742 5742 5742 5742 5743 5743 5743 5744
5802 5800 5799 5797 5795 5793 5791 5789 5786 5784 5781 5779 5776 5774 5771 5768 5765 5762 5759 5756 5754 5751 5749 5746 5744 5742 5741 5739 5738 5737 5736 5735 5735 5734 5734 5734 5734 5734 5734 5734 5734 5734 5734
5797 5796 5794 5793 5791 5789 5786 5784 5781 5779 5776 5774 5771 5768 5765 5763 5759 5756 5754 5751 5748 5745 5742 5740 5737 5735 5733 5732 5730 5729 5728 5727 5727 5726 5726 5726 5725 5726 5725 5725 5725 5724 5724
5793 5791 5790 5788 5786 5784 5781 5779 5777 5774 5771 5769 5766 5763 5760 5757 5754 5750 5747 5744 5741 5738 5735 5733 5730 5728 5726 5724 5723 5722 5721 5719 5719 5718 5718 5717 5717 5717 5717 5717 5716 5716 5715
5788 5786 5784 5782 5780 5778 5776 5774 5772 5769 5766 5763 5760 5757 5754 5750 5747 5744 5741 5738 5735 5732 5729 5726 5724 5721 5719 5718 5716 5714 5713 5712 5711 5710 5710 5709 5709 5709 5708 5708 5708 5707 5707
5783 5781 5779 5777 5775 5773 5771 5768 5766 5763 5761 5758 5754 5751 5748 5744 5741 5738 5735 5731 5728 5725 5722 5719 5717 5714 5712 5711 5709 5707 5706 5705 5704 5703 5702 5701 5700 5700 5700 5699 5699 5699 5698
5777 5775 5773 5771 5769 5767 5765 5762 5760 5757 5755 5752 5749 5745 5742 5739 5735 5731 5728 5724 5721 5718 5716 5713 5710 5707 5705 5704 5702 5700 5698 5697 5696 5695 5694 5693 5692 5692 5691 5691 5691 5690 5690
5772 5769 5767 5765 5763 5761 5759 5757 5754 5751 5749 5746 5742 5739 5736 5733 5729 5725 5721 5718 5715 5712 5709 5706 5703 5701 5699 5697 5695 5693 5691 5690 5688 5687 5686 5685 5685 5684 5683 5683 5683 5682 5682
5765 5763 5761 5759 5757 5755 5753 5751 5748 5745 5742 5740 5737 5733 5730 5726 5723 5719 5715 5712 5708 5705 5702 5699 5696 5694 5692 5690 5688 5685 5684 5683 5681 5680 5679 5678 5677 5676 5675 5675 5674 5674 5674
5759 5757 5754 5753 5751 5748 5746 5744 5742 5739 5736 5733 5730 5727 5724 5720 5716 5713 5709 5705 5702 5699 5696 5692 5689 5687 5684 5682 5681 5679 5677 5676 5675 5673 5672 5671 5670 5669 5668 5667 5667 5666 5666
5752 5750 5748 5746 5744 5742 5740 5738 5736 5733 5730 5727 5724 5721 5717 5714 5710 5706 5702 5699 5696 5692 5689 5686 5683 5680 5677 5676 5674 5672 5671 5669 5668 5667 5665 5664 5663 5662 5661 5660 5659 5658 5657
5746 5743 5742 5740 5738 5736 5734 5732 5729 5726 5724 5721 5718 5714 5711 5707 5703 5700 5696 5692 5689 5686 5683 5680 5677 5674 5671 5668 5666 5665 5663 5662 5660 5659 5658 5657 5656 5654 5653 5652 5651 5651 5650
5739 5737 5735 5734 5732 5730 5727 5725 5722 5720 5717 5714 5711 5708 5704 5700 5697 5693 5690 5686 5683 5680 5677 5674 5671 5668 5665 5662 5659 5657 5656 5654 5653 5652 5651 5649 5648 5647 5646 5645 5644 5643 5643
5732 5730 5729 5727 5725 5723 5720 5718 5715 5713 5710 5707 5704 5701 5697 5694 5690 5687 5683 5680 5676 5673 5670 5667 5664 5662 5659 5656 5653 5651 5649 5648 5646 5645 5644 5643 5641 5640 5639 5638 5637 5636 5636
5725 5723 5722 5720 5718 5716 5714 5711 5709 5706 5703 5700 5697 5694 5690 5686 5683 5680 5676 5673 5670 5667 5664 5661 5658 5655 5653 5650 5648 5645 5643 5641 5639 5638 5637 5636 5634 5633 5632 5631 5630 5630 5629